Wind_Speed
10 9 8 8 7 7 7 6 6 5 5 4 4 5 4 4 4 4 3 3 3 2 3 3 3 3 3 3 4 4 3 4 3 5 4 5 6 7 7 7 6 7 7
10 9 8 8 7 7 7 6 6 5 4 4 4 5 5 5 4 4 3 3 3 3 3 4 4 4 4 4 4 4 4 4 4 4 4 5 6 7 6 6 6 6 7
10 9 8 8 7 7 6 6 5 5 5 4 4 5 5 4 5 4 4 4 4 3 4 4 4 4 4 4 4 4 5 5 4 4 4 5 6 7 6 6 6 6 6
10 9 9 9 8 7 7 6 6 5 5 4 5 5 5 5 5 5 5 5 5 5 5 5 5 4 4 5 5 5 6 6 6 5 6 6 6 7 7 6 7 6 7
11 10 9 9 8 7 7 7 7 6 6 5 5 5 5 5 5 5 6 5 6 6 6 6 6 6 6 6 6 6 6 6 7 7 6 6 6 6 7 6 7 8 8
11 10 9 9 9 8 8 8 8 7 7 6 5 5 5 5 6 6 6 5 6 6 7 7 7 6 6 7 7 7 7 7 7 7 7 7 6 7 7 7 8 8 8
11 10 9 9 8 8 8 8 8 7 7 6 6 5 6 6 7 7 6 6 7 7 7 7 7 7 6 6 7 7 8 8 8 8 8 8 8 8 8 8 9 9 8
12 11 10 10 9 8 9 8 8 8 7 7 6 6 6 7 7 8 7 7 7 8 8 8 8 8 8 7 7 7 8 8 8 8 8 8 8 9 10 9 9 9 9
12 12 10 10 9 8 8 9 8 8 7 7 7 7 8 8 8 8 7 7 7 8 8 9 9 8 8 8 8 8 9 9 9 9 9 9 9 10 10 10 10 10 10
12 12 11 10 9 8 9 9 9 9 8 8 8 8 8 8 8 7 7 8 8 8 8 8 8 9 9 9 9 8 9 10 10 10 10 10 10 10 11 12 11 10 10
12 12 12 11 9 9 9 9 10 10 10 9 8 8 8 8 8 8 8 8 9 9 9 9 9 10 10 10 10 10 10 10 10 10 10 10 11 11 11 12 12 12 12
13 13 13 11 10 10 10 10 11 11 10 10 8 9 9 9 9 8 9 10 9 10 10 10 10 11 11 11 11 11 11 11 11 11 11 11 11 11 11 12 12 12 13
13 13 13 12 11 11 11 11 11 11 11 11 10 10 10 10 11 10 10 11 11 11 11 11 12 12 11 11 12 12 12 13 13 13 13 12 12 11 11 12 12 12 13
14 14 13 12 12 12 12 12 12 12 12 12 12 11 12 12 12 12 13 13 12 12 12 12 12 12 12 12 12 13 14 14 14 14 15 14 14 13 13 13 13 14 14
14 15 14 13 12 12 12 12 12 12 13 13 12 12 13 12 13 13 14 14 14 13 13 13 13 13 13 13 13 14 15 15 16 16 16 16 16 15 15 15 15 15 14
14 14 14 14 14 13 12 12 12 13 13 13 13 13 13 13 13 13 14 14 14 14 14 14 15 14 13 14 14 14 16 17 17 17 17 18 18 17 17 16 16 16 16
14 14 14 15 16 15 14 14 13 14 14 14 14 14 14 14 14 13 14 14 14 14 14 14 16 15 15 15 15 16 16 17 18 18 19 19 18 18 18 18 18 18 18
15 15 16 16 16 15 15 14 14 14 14 14 14 14 15 14 14 14 15 15 15 15 15 16 16 16 17 17 17 17 18 18 19 19 19 20 19 18 18 18 19 19 19
16 16 17 17 17 17 15 15 14 14 14 15 15 14 15 15 16 16 15 16 16 16 16 17 17 17 17 17 18 18 19 19 19 19 19 20 20 20 20 19 20 20 20
16 17 17 17 17 16 15 15 15 15 15 15 16 15 15 16 16 16 16 17 17 18 18 18 18 17 18 18 19 19 19 19 19 20 20 20 21 21 21 21 20 21 21
17 17 17 18 17 16 16 16 15 15 16 16 16 16 16 16 17 17 17 18 19 19 19 19 19 18 19 19 20 20 20 21 20 20 21 22 23 23 23 22 22 22 22
18 18 19 18 17 16 16 15 15 15 16 16 16 16 17 18 18 18 19 19 19 20 20 20 20 20 20 20 21 21 21 21 21 22 22 22 24 24 23 24 23 22 22
18 18 18 19 18 17 16 16 16 16 16 16 17 17 18 19 19 19 19 19 19 20 20 21 21 21 21 21 21 21 21 21 23 23 24 23 24 23 23 24 24 24 25
18 19 19 19 19 18 17 17 17 17 17 18 18 17 17 18 18 18 18 18 19 20 21 21 21 22 21 21 21 21 21 22 23 24 25 25 24 24 24 25 25 25 26
19 19 19 18 18 17 18 17 17 17 17 17 17 17 17 18 18 18 18 18 19 21 21 21 22 23 23 23 23 22 22 22 23 24 25 26 26 26 26 26 26 26 26
19 19 19 18 18 19 19 17 17 17 18 18 18 19 19 19 19 18 18 19 20 21 21 21 22 23 24 24 25 24 24 24 24 25 25 25 25 25 26 27 27 27 27
Wind_Direction
349 345 346 348 350 352 354 356 357 358 358 354 352 352 344 337 337 328 318 317 315 305 294 295 288 291 285 272 257 250 260 262 252 245 243 238 232 224 218 216 222 224 218
342 341 342 342 345 348 350 351 352 349 347 346 338 334 336 329 320 316 307 302 304 297 296 292 289 284 275 271 260 251 255 264 264 254 248 242 234 230 230 231 223 222 225
341 340 343 340 341 346 350 349 350 347 339 335 327 322 322 317 308 305 303 300 295 288 293 292 287 285 270 265 259 256 256 261 262 261 250 246 239 240 235 225 220 225 226
340 339 339 339 337 339 344 345 342 339 330 323 316 311 310 307 301 292 292 297 295 287 292 293 288 284 272 265 260 258 257 259 255 259 253 252 246 247 239 225 225 230 229
340 336 336 335 332 329 331 331 330 328 323 317 314 307 303 297 294 293 290 293 294 286 286 286 281 278 272 269 268 265 261 262 262 263 260 255 252 249 242 236 235 236 231
341 338 333 330 328 325 321 320 320 320 318 309 312 309 300 292 287 288 288 287 290 284 279 279 279 279 275 274 272 270 265 265 263 261 262 258 251 242 238 242 242 239 238
342 339 335 330 326 322 318 316 316 313 309 304 306 306 299 293 286 280 282 282 285 281 276 277 276 275 277 275 269 268 267 264 262 260 259 257 251 244 244 245 247 245 244
336 333 330 329 325 318 316 315 312 308 301 298 302 300 295 296 291 280 276 279 282 281 276 276 276 269 269 271 267 263 268 266 268 264 257 257 256 254 250 247 247 243 245
330 329 327 324 321 315 314 315 312 307 299 294 294 290 291 293 293 283 276 281 280 278 276 273 271 266 262 262 266 265 265 266 266 266 263 261 259 255 251 247 250 250 246
327 327 328 322 318 315 312 313 314 311 304 297 293 288 289 289 290 282 278 280 281 279 277 276 274 268 261 258 259 264 266 262 262 263 262 259 260 256 253 248 250 253 249
324 323 324 321 315 311 308 308 309 309 305 301 296 292 288 289 287 283 283 282 283 282 278 274 270 270 262 258 257 256 257 261 263 261 260 260 259 255 250 246 246 250 253
318 317 318 317 313 310 304 304 302 304 302 300 296 292 287 285 284 286 287 284 284 282 278 272 269 269 266 260 258 256 255 256 260 260 259 261 263 258 253 248 249 251 252
316 315 314 315 314 310 306 305 301 299 299 297 294 291 286 283 285 288 287 285 281 279 275 272 272 271 269 265 259 256 255 254 257 256 256 258 260 260 255 250 250 252 251
314 317 312 313 314 312 311 306 303 301 297 294 291 289 286 284 285 285 284 284 280 278 275 272 270 268 267 268 263 261 259 256 255 255 254 255 256 258 256 255 254 254 253
314 314 313 312 312 312 312 308 305 303 299 295 290 290 290 288 287 284 282 284 280 278 278 277 272 270 267 265 263 264 262 260 257 255 256 255 254 254 254 256 254 255 255
315 314 313 314 317 314 309 306 306 304 301 297 291 291 288 287 288 285 282 282 280 278 280 279 276 272 269 266 265 264 263 261 258 255 256 256 255 254 255 255 254 255 256
308 310 312 314 312 309 305 302 302 301 301 300 295 292 285 283 284 283 282 281 279 277 277 278 276 274 274 270 267 265 264 260 258 257 257 258 257 258 256 255 256 254 255
302 305 305 309 308 305 303 303 302 301 300 298 294 291 285 283 282 281 281 280 277 276 277 278 275 273 271 269 266 264 263 263 260 259 258 258 258 258 258 258 257 253 253
297 300 301 302 303 302 301 301 302 302 299 295 291 287 286 286 283 280 281 281 279 277 278 278 276 276 271 269 266 264 262 263 262 261 261 260 259 258 258 258 258 255 254
293 295 298 298 299 299 298 298 298 298 297 295 290 288 288 284 281 280 281 282 280 279 278 277 277 273 270 270 268 266 265 264 263 262 261 260 260 261 258 256 256 254 254
291 292 295 296 296 297 298 297 296 297 297 297 292 288 287 284 283 282 282 281 280 278 277 277 276 273 271 272 270 268 266 264 263 261 260 260 260 261 259 256 255 254 255
289 292 294 294 292 293 297 299 297 296 295 296 291 288 286 285 285 284 283 281 279 277 276 275 273 273 271 272 271 270 268 266 264 262 261 261 261 260 257 255 255 255 256
285 290 293 294 290 290 293 295 294 293 293 294 291 289 289 287 285 284 283 281 279 278 276 274 272 272 271 272 271 270 268 266 265 263 262 262 262 257 256 256 256 256 257
285 288 291 292 289 288 289 290 290 291 293 294 293 292 291 290 288 286 284 284 283 282 277 274 271 272 272 271 270 270 269 269 268 265 264 263 261 259 256 255 256 258 259
285 285 286 286 285 287 287 289 289 290 292 293 290 289 290 291 289 285 284 287 286 284 280 277 273 273 272 270 271 271 269 269 268 267 265 265 263 261 258 256 257 258 259
280 280 281 283 283 286 286 287 290 290 290 290 288 288 289 290 287 283 283 286 288 286 283 280 277 275 274 272 271 269 269 269 268 267 266 266 264 263 261 258 257 258 259
Height
5883 5882 5882 5881 5880 5879 5878 5877 5877 5877 5876 5876 5877 5877 5877 5877 5878 5878 5878 5878 5879 5879 5879 5880 5880 5881 5881 5881 5882 5882 5882 5883 5884 5884 5885 5885 5885 5886 5887 5888 5890 5891 5892
5883 5882 5881 5880 5879 5878 5878 5877 5876 5876 5876 5876 5876 5876 5877 5877 5877 5877 5878 5878 5878 5878 5879 5879 5879 5880 5880 5881 5881 5881 5882 5882 5883 5884 5884 5884 5885 5885 5886 5888 5889 5890 5891
5882 5881 5880 5880 5879 5878 5877 5877 5876 5876 5875 5875 5875 5875 5876 5876 5876 5876 5877 5877 5877 5878 5878 5878 5879 5879 5879 5880 5880 5881 5881 5882 5882 5883 5883 5884 5884 5885 5886 5887 5888 5889 5891
5881 5880 5880 5879 5878 5877 5876 5876 5875 5875 5875 5874 5874 5874 5874 5875 5875 5875 5876 5876 5876 5877 5877 5877 5878 5878 5878 5879 5879 5880 5880 5881 5882 5882 5883 5883 5884 5884 5885 5886 5887 5889 5890
5880 5879 5878 5878 5877 5876 5876 5875 5874 5874 5874 5873 5873 5873 5873 5873 5874 5874 5874 5875 5875 5875 5876 5877 5877 5877 5878 5878 5878 5878 5879 5880 5881 5881 5882 5883 5883 5884 5885 5886 5887 5888 5889
5879 5878 5877 5876 5875 5875 5874 5874 5873 5873 5872 5872 5872 5872 5872 5872 5872 5873 5873 5873 5874 5874 5875 5875 5876 5876 5876 5877 5877 5877 5878 5879 5879 5880 5881 5881 5882 5883 5884 5885 5886 5887 5887
5878 5877 5876 5875 5874 5873 5873 5872 5872 5871 5871 5871 5871 5871 5871 5871 5871 5871 5872 5872 5872 5873 5873 5874 5874 5874 5875 5875 5875 5876 5877 5877 5878 5879 5880 5880 5881 5882 5883 5883 5884 5885 5886
5877 5876 5874 5873 5872 5871 5871 5871 5870 5870 5870 5869 5869 5869 5869 5870 5870 5870 5870 5870 5871 5871 5871 5872 5872 5873 5873 5874 5874 5875 5875 5876 5876 5877 5878 5878 5879 5880 5881 5882 5883 5883 5885
5876 5875 5873 5872 5871 5870 5870 5869 5869 5868 5868 5868 5868 5867 5868 5868 5868 5868 5868 5869 5869 5869 5869 5870 5870 5871 5871 5872 5872 5873 5874 5874 5875 5875 5876 5876 5877 5878 5879 5880 5881 5882 5883
5875 5873 5872 5871 5870 5869 5868 5868 5867 5867 5867 5866 5866 5866 5866 5866 5866 5866 5866 5866 5867 5867 5867 5868 5868 5869 5869 5870 5870 5871 5871 5872 5872 5873 5873 5874 5875 5876 5877 5878 5879 5880 5881
5873 5872 5870 5869 5868 5867 5867 5866 5865 5865 5865 5864 5864 5864 5864 5864 5864 5864 5864 5864 5865 5865 5865 5865 5866 5866 5867 5868 5868 5869 5869 5870 5870 5871 5871 5872 5873 5874 5875 5876 5877 5878 5879
5871 5870 5869 5867 5866 5865 5865 5864 5864 5863 5863 5862 5862 5862 5862 5862 5862 5862 5862 5862 5862 5862 5862 5863 5863 5863 5864 5865 5865 5866 5867 5867 5868 5869 5869 5870 5871 5872 5872 5873 5875 5875 5876
5869 5868 5867 5865 5864 5864 5863 5862 5861 5861 5860 5860 5860 5860 5860 5860 5860 5859 5859 5859 5859 5859 5860 5860 5860 5860 5861 5861 5862 5863 5864 5864 5865 5866 5867 5868 5869 5870 5870 5871 5872 5873 5874
5867 5866 5864 5863 5862 5861 5861 5860 5859 5858 5858 5858 5857 5857 5857 5857 5857 5857 5857 5856 5856 5856 5856 5857 5857 5858 5858 5858 5859 5860 5861 5861 5862 5863 5864 5865 5866 5867 5867 5868 5869 5870 5871
5865 5863 5862 5861 5860 5859 5858 5857 5857 5856 5855 5855 5855 5854 5854 5854 5854 5853 5853 5853 5853 5853 5853 5853 5854 5854 5855 5855 5856 5856 5857 5858 5859 5860 5860 5861 5862 5863 5864 5865 5866 5867 5868
5862 5861 5859 5858 5857 5856 5855 5855 5854 5853 5852 5852 5851 5851 5851 5850 5850 5850 5850 5850 5850 5849 5850 5850 5850 5851 5851 5851 5852 5853 5853 5854 5855 5856 5857 5858 5859 5860 5861 5862 5862 5864 5864
5859 5858 5857 5855 5855 5854 5853 5852 5851 5850 5850 5849 5848 5848 5847 5847 5847 5847 5847 5846 5846 5846 5846 5846 5846 5847 5847 5848 5848 5849 5850 5850 5851 5852 5853 5854 5855 5856 5857 5858 5858 5859 5860
5856 5855 5854 5853 5852 5851 5850 5849 5848 5847 5846 5846 5845 5844 5844 5843 5843 5843 5843 5843 5842 5842 5842 5842 5842 5843 5843 5844 5844 5845 5846 5846 5847 5848 5849 5850 5851 5852 5853 5853 5854 5855 5856
5853 5852 5851 5850 5849 5848 5847 5845 5845 5843 5843 5842 5841 5841 5840 5840 5840 5839 5839 5839 5838 5838 5838 5838 5838 5838 5839 5839 5840 5840 5841 5842 5842 5843 5844 5845 5846 5847 5848 5848 5849 5850 5851
5849 5849 5848 5847 5845 5844 5843 5842 5841 5840 5839 5838 5838 5837 5837 5836 5836 5836 5835 5835 5834 5834 5834 5834 5834 5834 5834 5835 5835 5836 5836 5837 5837 5838 5839 5840 5840 5841 5842 5843 5844 5845 5846
5845 5845 5844 5843 5842 5840 5839 5838 5837 5836 5835 5834 5834 5833 5833 5832 5832 5831 5831 5830 5830 5830 5830 5830 5830 5830 5830 5830 5831 5831 5831 5832 5833 5833 5834 5834 5835 5836 5837 5838 5839 5840 5841
5841 5840 5839 5838 5837 5836 5835 5834 5834 5833 5832 5831 5830 5829 5828 5828 5827 5827 5826 5826 5825 5825 5825 5825 5825 5825 5825 5825 5825 5826 5826 5827 5827 5828 5828 5829 5830 5830 5831 5832 5833 5834 5835
5837 5836 5835 5834 5833 5832 5831 5830 5830 5829 5828 5827 5826 5825 5824 5823 5823 5822 5821 5821 5820 5820 5819 5819 5819 5819 5820 5820 5820 5820 5821 5821 5821 5822 5822 5823 5824 5824 5825 5826 5827 5828 5829
5832 5831 5830 5829 5829 5828 5827 5826 5825 5824 5824 5823 5821 5820 5819 5818 5817 5817 5816 5816 5815 5815 5814 5814 5814 5814 5814 5814 5814 5814 5815 5815 5815 5816 5816 5816 5817 5818 5818 5819 5820 5821 5822
5827 5826 5826 5824 5824 5823 5822 5821 5820 5820 5819 5818 5817 5816 5815 5814 5813 5812 5811 5811 5810 5809 5809 5808 5808 5808 5808 5808 5808 5808 5809 5809 5809 5810 5810 5810 5810 5810 5811 5812 5813 5814 5815
5822 5821 5820 5820 5819 5819 5818 5817 5816 5815 5814 5813 5812 5811 5810 5809 5808 5807 5806 5805 5805 5804 5803 5802 5802 5802 5802 5802 5802 5802 5802 5803 5803 5803 5803 5803 5803 5803 5804 5805 5806 5807 5808